CZ-6A DEB, 61355

Orbit data source: Space-Track

CZ-6A DEB, 61355 is space debris in LEO originally from a launch on Tue, 06 Aug 2024 UTC launched from the Taiyaun Space Center, China (TSC). Debris objects in space refer to the collection of defunct objects orbiting the Earth. Examples of debris include non-operational satellites, rocket bodies, and fragments generated from explosions, collisions, or faulty payload assembly.

Loading next visibility...
Identifier
61355, 2024-140VU
Orbit
LEO
Country
Flag of CNCN / PRC
Related business
Manufacturer
SAST
Mission
Spacecraft
Bus & Motor
Unknown
Mass
Unknown
Launch date (UTC)
2024-08-06 (2 years ago)
Launch vehicle
Unknown
Launch site
Taiyaun Space Center, China (TSC)
Object type
Payload
Rocket body
Debris
Shape & HBR
Unknown shape, 0.1 m
Radar Cross Section
Small (<0.1 m²)

Expand to show TLE details & history
Last TLE update: 17 hours ago

TLE from 17 hours ago
0 CZ-6A DEB
1 61355U 24140VU  26171.26869475  .00001594  00000-0  35686-3 0  9995
2 61355  88.9839 268.7693 0084234 249.6144 109.6003 14.54054506 95130
Epoch: 2026-06-20T06:26Z
TLE epoch observation values (Epoch: 2026-06-20T06:26:55.226Z)
Latitude
0.00002°
Longitude
-96.44656°
Altitude
736.023 km
Speed
7.476 km/s
True Right ascension
17h 55m 04s
True Declination
0° 00' 00"
Sunlit
Object was in full shadow at epoch
Visualization orbit readout
Latitude
Unknown
Longitude
Unknown
Altitude
Unknown
Speed
Unknown
Apparent Right ascension
Unknown
Apparent Declination
Unknown
Sunlit
N/A
Visualization observer readout
Local Sidereal Time
10:18:10
Azimuth
Unknown
Elevation
Unknown
Doppler factor
Unknown
Orbital elements
Apogee altitude
769.04 km
Perigee altitude
649.639 km
Semi-major axis
7,087.476 km
Eccentricity
0.00842
Inclination
88.9839°
RAAN
268.7693°
Arg. of periapsis
249.6144°
True anomaly
110.50638°
Mean anomaly
109.6003°
Eccentric anomaly
110.05366°
Mean motion
3.63752 °/min
Orbital period
98.97 mins
BSTAR
0.00035686
Loading maneuver chart data...
Computing Atmospheric mass density...
Loading historical data...
Loading historical data...
Loading historical data...
Loading historical data...
Loading historical data...
Loading historical data...
Loading historical data...

Documentation

Showing up to 5 results
|